KM5HG-3 Weather Reports


Display with metric or nautical units.
time (UTC)temp
F
wind
direction
speed
MPH
gust
MPH
rain 1hr
in
rain 24hr
in
rain mn
in
humidity
%
barometer
mb
20171217154433 45 134 4.0 6.0 0.00 0.00 0.00
20171217153933 45 134 3.0 5.0 0.00 0.00 0.00
20171217153433 45 132 4.0 7.0 0.00 0.00 0.00
20171217152933 45 120 4.0 6.0 0.00 0.00 0.00
20171217152433 45 124 3.0 4.0 0.00 0.00 0.00
20171217151933 45 149 3.0 6.0 0.00 0.00 0.00
20171217151433 45 145 3.0 5.0 0.00 0.00 0.00
20171217150935 45 139 3.0 4.0 0.00 0.00 0.00
20171217150433 44 125 3.0 4.0 0.00 0.00 0.00
20171217145933 44 125 3.0 5.0 0.00 0.00 0.00
20171217145433 44 132 3.0 4.0 0.00 0.00 0.00
20171217144935 45 142 2.0 4.0 0.00 0.00 0.00
20171217144433 44 145 1.0 4.0 0.00 0.00 0.00
20171217143933 44 149 0.0 2.0 0.00 0.00 0.00
20171217143433 44 0 0.0 0.0 0.00 0.00 0.00
20171217142934 44 0 0.0 0.0 0.00 0.00 0.00
20171217142433 44 0 0.0 0.0 0.00 0.00 0.00
20171217141933 44 0 0.0 0.0 0.00 0.00 0.00
20171217141433 44 0 0.0 0.0 0.00 0.00 0.00
20171217140933 44 0 0.0 0.0 0.00 0.00 0.00
20171217140433 44 0 0.0 0.0 0.00 0.00 0.00
20171217135933 44 0 0.0 0.0 0.00 0.00 0.00
20171217135433 44 163 1.0 2.0 0.00 0.00 0.00
20171217134933 44 198 0.0 1.0 0.00 0.00 0.00
20171217134433 44 193 1.0 4.0 0.00 0.00 0.00
20171217133934 44 184 1.0 3.0 0.00 0.00 0.00
20171217133433 44 181 1.0 3.0 0.00 0.00 0.00
20171217132933 44 201 2.0 4.0 0.00 0.00 0.00
20171217132433 44 155 1.0 3.0 0.00 0.00 0.00
20171217131933 44 142 2.0 4.0 0.00 0.00 0.00
20171217131434 44 148 2.0 4.0 0.00 0.00 0.00
20171217130933 44 146 2.0 5.0 0.00 0.00 0.00
20171217130433 44 149 4.0 5.0 0.00 0.00 0.00
20171217125933 44 141 4.0 5.0 0.00 0.00 0.00
20171217125433 44 152 3.0 6.0 0.00 0.00 0.00
20171217124933 44 135 3.0 5.0 0.00 0.00 0.00
20171217124433 44 141 3.0 4.0 0.00 0.00 0.00
20171217123933 45 143 4.0 5.0 0.00 0.00 0.00
20171217123433 44 145 3.0 4.0 0.00 0.00 0.00
20171217122933 44 146 2.0 5.0 0.00 0.00 0.00
20171217122433 44 188 3.0 5.0 0.00 0.00 0.00
20171217121934 44 148 3.0 5.0 0.00 0.00 0.00
20171217121433 44 155 3.0 4.0 0.00 0.00 0.00
20171217120940 44 184 2.0 5.0 0.00 0.00 0.00
20171217120442 44 153 2.0 5.0 0.00 0.00 0.00
20171217115936 43 167 1.0 5.0 0.00 0.00 0.00
20171217115433 43 0 0.0 0.0 0.00 0.00 0.00
20171217114934 44 0 0.0 0.0 0.00 0.00 0.00
20171217114433 43 0 0.0 0.0 0.00 0.00 0.00
20171217113933 44 0 0.0 0.0 0.00 0.00 0.00
20171217113433 43 0 0.0 0.0 0.00 0.00 0.00
20171217112933 43 0 0.0 0.0 0.00 0.00 0.00
20171217112433 43 0 0.0 0.0 0.00 0.00 0.00
20171217111933 43 0 0.0 0.0 0.00 0.00 0.00
20171217111433 43 0 0.0 0.0 0.00 0.00 0.00
20171217110934 43 0 0.0 0.0 0.00 0.00 0.00
20171217110433 43 0 0.0 0.0 0.00 0.00 0.00
20171217105933 43 0 0.0 0.0 0.00 0.00 0.00
20171217105433 43 0 0.0 0.0 0.00 0.00 0.00
20171217104941 43 0 0.0 0.0 0.00 0.00 0.00
20171217104433 43 0 0.0 0.0 0.00 0.00 0.00
20171217103933 43 188 0.0 4.0 0.00 0.00 0.00
20171217103433 43 0 0.0 0.0 0.00 0.00 0.00
20171217102933 43 118 0.0 0.0 0.00 0.00 0.00
20171217102433 43 181 2.0 3.0 0.00 0.00 0.00
20171217101934 43 167 2.0 4.0 0.00 0.00 0.00
20171217101433 43 143 1.0 5.0 0.00 0.00 0.00
20171217100935 43 180 1.0 4.0 0.00 0.00 0.00
20171217100433 43 181 1.0 4.0 0.00 0.00 0.00
20171217095933 43 160 1.0 4.0 0.00 0.00 0.00
20171217095433 43 143 2.0 5.0 0.00 0.00 0.00
20171217094933 43 138 4.0 6.0 0.00 0.00 0.00
20171217094433 43 110 6.0 7.0 0.00 0.00 0.00
20171217093933 43 113 5.0 7.0 0.00 0.00 0.00
20171217093433 43 110 5.0 6.0 0.00 0.00 0.00
20171217092933 43 129 3.0 5.0 0.00 0.00 0.00
20171217092433 43 135 3.0 4.0 0.00 0.00 0.00
20171217091433 43 127 3.0 5.0 0.00 0.00 0.00
20171217090933 43 108 3.0 5.0 0.00 0.00 0.00
20171217090433 43 108 3.0 5.0 0.00 0.00 0.00
20171217085933 43 117 4.0 5.0 0.00 0.00 0.00
20171217085433 43 110 3.0 6.0 0.00 0.00 0.00
20171217084933 43 125 5.0 7.0 0.00 0.00 0.00
20171217084434 43 127 2.0 6.0 0.00 0.00 0.00
20171217083933 43 120 0.0 1.0 0.00 0.00 0.00
20171217083433 43 125 2.0 4.0 0.00 0.00 0.00
20171217082933 43 135 3.0 4.0 0.00 0.00 0.00
20171217082433 43 128 2.0 4.0 0.00 0.00 0.00
20171217081933 43 0 0.0 0.0 0.00 0.00 0.00
20171217081433 43 0 0.0 0.0 0.00 0.00 0.00
20171217080933 43 0 0.0 0.0 0.00 0.00 0.00
20171217080433 43 0 0.0 0.0 0.00 0.00 0.00
20171217075933 43 0 0.0 0.0 0.00 0.00 0.00
20171217075433 43 0 0.0 0.0 0.00 0.00 0.00
20171217074933 43 0 0.0 0.0 0.00 0.00 0.00
20171217074433 43 195 1.0 3.0 0.00 0.00 0.00
20171217073933 43 138 2.0 4.0 0.00 0.00 0.00
20171217073433 43 163 1.0 3.0 0.00 0.00 0.00
20171217072936 43 0 0.0 0.0 0.00 0.00 0.00
20171217072433 43 167 1.0 4.0 0.00 0.00 0.00
20171217071933 43 167 3.0 5.0 0.00 0.00 0.00
20171217071433 43 198 3.0 5.0 0.00 0.00 0.00
20171217070433 43 155 3.0 6.0 0.00 0.00 0.00
20171217065937 43 160 3.0 6.0 0.00 0.00 0.00
20171217065433 43 170 3.0 5.0 0.00 0.00 0.00
20171217064933 43 114 2.0 4.0 0.00 0.00 0.00
20171217064433 43 98 3.0 4.0 0.00 0.00 0.00
20171217063933 43 115 2.0 4.0 0.00 0.00 0.00
20171217063433 43 134 3.0 4.0 0.00 0.00 0.00
20171217062433 43 117 5.0 7.0 0.00 0.00 0.00
20171217061933 43 174 5.0 7.0 0.00 0.00 0.00
20171217061433 43 210 5.0 8.0 0.00 0.00 0.00
20171217060932 43 160 5.0 7.0 0.00 0.00 0.00
20171217060432 43 166 5.0 9.0 0.00 0.00 0.00
20171217055934 43 191 6.0 9.0 0.00 0.00 0.00
20171217055433 43 155 6.0 9.0 0.00 0.00 0.00
20171217054932 43 138 6.0 9.0 0.00 0.00 0.00
20171217054432 43 148 6.0 9.0 0.00 0.00 0.00
20171217053932 43 131 7.0 10.0 0.00 0.00 0.00
20171217053432 43 127 7.0 11.0 0.00 0.00 0.00
20171217052934 43 146 5.0 9.0 0.00 0.00 0.00
20171217052432 43 149 5.0 8.0 0.00 0.00 0.00
20171217051934 43 141 5.0 8.0 0.00 0.00 0.00
20171217051434 44 150 6.0 9.0 0.00 0.00 0.00
20171217050935 44 150 6.0 9.0 0.00 0.00 0.00
20171217050435 43 169 5.0 8.0 0.00 0.00 0.00
20171217045935 44 160 5.0 8.0 0.00 0.00 0.00
20171217045434 43 152 4.0 6.0 0.00 0.00 0.00
20171217044934 43 149 4.0 6.0 0.00 0.00 0.00
20171217044434 43 166 4.0 6.0 0.00 0.00 0.00
20171217043935 43 170 4.0 6.0 0.00 0.00 0.00
20171217043435 43 167 4.0 7.0 0.00 0.00 0.00
20171217042934 44 193 4.0 6.0 0.00 0.00 0.00
20171217042434 44 205 4.0 6.0 0.00 0.00 0.00
20171217041934 43 177 4.0 7.0 0.00 0.00 0.00
20171217041434 43 152 4.0 6.0 0.00 0.00 0.00
20171217040934 44 150 4.0 6.0 0.00 0.00 0.00
20171217040434 43 149 4.0 6.0 0.00 0.00 0.00
20171217035934 44 163 4.0 6.0 0.00 0.00 0.00
20171217035434 44 183 4.0 7.0 0.00 0.00 0.00
20171217034434 44 165 6.0 9.0 0.00 0.00 0.00
20171217033934 44 166 6.0 9.0 0.00 0.00 0.00
20171217033434 44 152 8.0 13.0 0.00 0.00 0.00
20171217032937 44 141 9.0 13.0 0.00 0.00 0.00
20171217032434 45 149 9.0 12.0 0.00 0.00 0.00
20171217031934 45 155 9.0 15.0 0.00 0.00 0.00
20171217031435 46 197 10.0 15.0 0.00 0.00 0.00
20171217030934 46 198 11.0 20.0 0.00 0.00 0.00
20171217030434 46 197 12.0 21.0 0.00 0.00 0.00
20171217025936 47 186 14.0 22.0 0.00 0.00 0.00
20171217025434 49 194 15.0 24.0 0.00 0.00 0.00
20171217024934 51 183 11.0 17.0 0.00 0.00 0.00
20171217024434 53 156 8.0 13.0 0.00 0.00 0.00
20171217023434 54 138 9.0 12.0 0.00 0.00 0.00
20171217022938 54 125 10.0 15.0 0.00 0.00 0.00
20171217022435 54 145 9.0 15.0 0.00 0.00 0.00
20171217021935 54 145 9.0 13.0 0.00 0.00 0.00
20171217021434 54 153 9.0 13.0 0.00 0.00 0.00
20171217020934 54 141 8.0 13.0 0.00 0.00 0.00
20171217020434 54 142 9.0 14.0 0.00 0.00 0.00
20171217015938 54 134 9.0 16.0 0.00 0.00 0.00
20171217015434 55 114 8.0 11.0 0.00 0.00 0.00
20171217014934 55 135 9.0 14.0 0.00 0.00 0.00
20171217014434 54 132 9.0 14.0 0.00 0.00 0.00
20171217013934 54 158 8.0 13.0 0.00 0.00 0.00
20171217013434 54 134 8.0 12.0 0.00 0.00 0.00
20171217012937 55 143 7.0 10.0 0.00 0.00 0.00
20171217012434 54 156 8.0 11.0 0.00 0.00 0.00
20171217011935 55 136 8.0 11.0 0.00 0.00 0.00
20171217011434 54 163 7.0 10.0 0.00 0.00 0.00
20171217010934 54 145 7.0 13.0 0.00 0.00 0.00
20171217010437 54 156 5.0 9.0 0.00 0.00 0.00
20171217005936 54 156 5.0 7.0 0.00 0.00 0.00
20171217005434 54 153 5.0 7.0 0.00 0.00 0.00
20171217004934 54 129 4.0 6.0 0.00 0.00 0.00
20171217004434 54 149 4.0 6.0 0.00 0.00 0.00
20171217003934 54 148 4.0 6.0 0.00 0.00 0.00
20171217003434 54 169 5.0 7.0 0.00 0.00 0.00
20171217002934 55 148 5.0 7.0 0.00 0.00 0.00
20171217002434 54 135 5.0 7.0 0.00 0.00 0.00
20171217001934 55 135 5.0 8.0 0.00 0.00 0.00
20171217001434 55 121 4.0 7.0 0.00 0.00 0.00
20171217000934 54 139 4.0 6.0 0.00 0.00 0.00
20171217000434 55 146 4.0 6.0 0.00 0.00 0.00
20171216235935 54 153 4.0 5.0 0.00 0.00 0.00
20171216235434 55 139 4.0 6.0 0.00 0.00 0.00
20171216234934 55 169 5.0 6.0 0.00 0.00 0.00
20171216234434 55 141 5.0 7.0 0.00 0.00 0.00
20171216233934 55 139 5.0 8.0 0.00 0.00 0.00
20171216233434 55 153 6.0 8.0 0.00 0.00 0.00
20171216232935 55 145 6.0 8.0 0.00 0.00 0.00
20171216232434 56 139 6.0 9.0 0.00 0.00 0.00
20171216231934 55 143 6.0 9.0 0.00 0.00 0.00
20171216231434 56 135 6.0 9.0 0.00 0.00 0.00
20171216230935 56 134 5.0 7.0 0.00 0.00 0.00
20171216230434 56 149 6.0 8.0 0.00 0.00 0.00
20171216225946 56 172 6.0 8.0 0.00 0.00 0.00
20171216225434 57 153 6.0 9.0 0.00 0.00 0.00
20171216224934 57 145 7.0 9.0 0.00 0.00 0.00
20171216224434 57 149 7.0 12.0 0.00 0.00 0.00
20171216223935 57 139 6.0 9.0 0.00 0.00 0.00
20171216223434 58 136 7.0 10.0 0.00 0.00 0.00
20171216222936 58 156 8.0 12.0 0.00 0.00 0.00
20171216222434 59 152 7.0 11.0 0.00 0.00 0.00
20171216221934 59 176 7.0 13.0 0.00 0.00 0.00
20171216221434 59 174 7.0 12.0 0.00 0.00 0.00
20171216220936 59 187 8.0 13.0 0.00 0.00 0.00
20171216220434 59 153 7.0 11.0 0.00 0.00 0.00
20171216215938 59 186 8.0 13.0 0.00 0.00 0.00
20171216215434 59 165 9.0 15.0 0.00 0.00 0.00
20171216214934 60 163 9.0 15.0 0.00 0.00 0.00
20171216214435 60 159 9.0 16.0 0.00 0.00 0.00
20171216213935 60 146 9.0 14.0 0.00 0.00 0.00
20171216213434 61 190 10.0 15.0 0.00 0.00 0.00
20171216212934 61 201 10.0 15.0 0.00 0.00 0.00
20171216212435 61 188 8.0 16.0 0.00 0.00 0.00
20171216211934 62 179 8.0 12.0 0.00 0.00 0.00
20171216211434 61 187 9.0 16.0 0.00 0.00 0.00
20171216210934 61 193 10.0 16.0 0.00 0.00 0.00
20171216210434 61 158 9.0 14.0 0.00 0.00 0.00
20171216205934 61 155 9.0 15.0 0.00 0.00 0.00
20171216205434 62 205 9.0 15.0 0.00 0.00 0.00
20171216204936 62 186 9.0 19.0 0.00 0.00 0.00
20171216204434 62 186 10.0 17.0 0.00 0.00 0.00
20171216203934 62 183 9.0 15.0 0.00 0.00 0.00
20171216203434 62 181 8.0 13.0 0.00 0.00 0.00
20171216202934 62 195 8.0 17.0 0.00 0.00 0.00
20171216202434 62 193 10.0 15.0 0.00 0.00 0.00
20171216201934 62 111 10.0 18.0 0.00 0.00 0.00
20171216201434 63 193 9.0 15.0 0.00 0.00 0.00
20171216200934 63 195 9.0 14.0 0.00 0.00 0.00
20171216200434 62 200 7.0 11.0 0.00 0.00 0.00
20171216195934 62 181 9.0 15.0 0.00 0.00 0.00
20171216195434 62 198 12.0 19.0 0.00 0.00 0.00
20171216194936 62 163 11.0 17.0 0.00 0.00 0.00
20171216194435 62 143 10.0 17.0 0.00 0.00 0.00
20171216193934 61 153 9.0 16.0 0.00 0.00 0.00
20171216193434 62 158 10.0 15.0 0.00 0.00 0.00
20171216192934 62 132 10.0 14.0 0.00 0.00 0.00
20171216192434 62 156 10.0 14.0 0.00 0.00 0.00
20171216191934 61 197 10.0 16.0 0.00 0.00 0.00
20171216191434 62 165 9.0 16.0 0.00 0.00 0.00
20171216190934 62 163 11.0 17.0 0.00 0.00 0.00
20171216190434 62 127 11.0 17.0 0.00 0.00 0.00
20171216185937 61 150 8.0 15.0 0.00 0.00 0.00
20171216185434 61 148 8.0 13.0 0.00 0.00 0.00
20171216184934 62 169 9.0 15.0 0.00 0.00 0.00
20171216184434 60 188 10.0 15.0 0.00 0.00 0.00
20171216183934 61 177 10.0 15.0 0.00 0.00 0.00
20171216183434 60 165 9.0 16.0 0.00 0.00 0.00
20171216182935 59 186 9.0 15.0 0.00 0.00 0.00
20171216182434 59 139 8.0 16.0 0.00 0.00 0.00
20171216181934 61 177 7.0 11.0 0.00 0.00 0.00
20171216181434 59 208 9.0 14.0 0.00 0.00 0.00
20171216180934 59 186 9.0 13.0 0.00 0.00 0.00
20171216180434 59 155 7.0 11.0 0.00 0.00 0.00
20171216175937 58 205 10.0 16.0 0.00 0.00 0.00
20171216175434 59 152 8.0 16.0 0.00 0.00 0.00
20171216174934 58 176 9.0 14.0 0.00 0.00 0.00
20171216174434 58 167 9.0 13.0 0.00 0.00 0.00
20171216173934 57 187 9.0 13.0 0.00 0.00 0.00
20171216173435 57 174 9.0 14.0 0.00 0.00 0.00
20171216172934 56 180 9.0 14.0 0.00 0.00 0.00
20171216172433 56 176 8.0 14.0 0.00 0.00 0.00
20171216171934 55 193 10.0 14.0 0.00 0.00 0.00
20171216171434 54 194 9.0 14.0 0.00 0.00 0.00
20171216170933 55 180 9.0 13.0 0.00 0.00 0.00
20171216170434 54 174 9.0 13.0 0.00 0.00 0.00
20171216165934 54 179 9.0 13.0 0.00 0.00 0.00
20171216165433 53 197 10.0 14.0 0.00 0.00 0.00
20171216164933 52 194 9.0 15.0 0.00 0.00 0.00
20171216164433 52 172 9.0 12.0 0.00 0.00 0.00
20171216163933 52 136 9.0 14.0 0.00 0.00 0.00
20171216163433 51 186 9.0 13.0 0.00 0.00 0.00
20171216162933 51 193 8.0 13.0 0.00 0.00 0.00
20171216162433 50 176 8.0 13.0 0.00 0.00 0.00
20171216161933 50 179 8.0 12.0 0.00 0.00 0.00
20171216161433 50 176 8.0 13.0 0.00 0.00 0.00
20171216160933 49 180 9.0 13.0 0.00 0.00 0.00
20171216160433 48 181 8.0 12.0 0.00 0.00 0.00
20171216155939 48 163 8.0 12.0 0.00 0.00 0.00
20171216155433 47 170 9.0 13.0 0.00 0.00 0.00
20171216154933 46 187 8.0 13.0 0.00 0.00 0.00